When you browse on this site, cookies collect data to enhance your experience and personalize the content and advertising you see.
Visit our Privacy Policy to learn more. By continuing to use the site, you agree to this use of cookies and data.

Stündliche Wetter Bolshie Ostrogi

Heute, 27 September, Sonntag

Zeit Temperatur Niederschläge Wind Luftdruck Luftfeuchtigkeit
00:00 +15°C° 0 mm 6 m/S 742 mmHg 60%
01:00 +14°C° 0 mm 6 m/S 743 mmHg 59%
02:00 +14°C° 0 mm 5 m/S 743 mmHg 58%
03:00 +13°C° 0 mm 6 m/S 743 mmHg 59%
04:00 +13°C° 0 mm 6 m/S 742 mmHg 59%
05:00 +13°C° 0 mm 6 m/S 742 mmHg 60%
06:00 +13°C° 0 mm 6 m/S 743 mmHg 60%
07:00 +14°C° 0 mm 7 m/S 743 mmHg 60%
08:00 +14°C° 0 mm 7 m/S 743 mmHg 60%
09:00 +15°C° 0 mm 7 m/S 743 mmHg 58%
10:00 +17°C° 0 mm 8 m/S 743 mmHg 56%
11:00 +18°C° 0 mm 8 m/S 743 mmHg 54%
12:00 +18°C° 0 mm 8 m/S 743 mmHg 53%
13:00 +18°C° 0 mm 8 m/S 743 mmHg 53%
14:00 +20°C° 0 mm 8 m/S 743 mmHg 53%
15:00 +18°C° 0.1 mm 8 m/S 743 mmHg 58%
16:00 +16°C° 0.1 mm 7 m/S 743 mmHg 63%
17:00 +15°C° 0.1 mm 7 m/S 743 mmHg 67%
18:00 +15°C° 0.7 mm 7 m/S 743 mmHg 71%
19:00 +14°C° 0.7 mm 7 m/S 743 mmHg 74%
20:00 +12°C° 0.7 mm 7 m/S 743 mmHg 77%
21:00 +12°C° 0.6 mm 7 m/S 743 mmHg 80%
22:00 +13°C° 0.6 mm 6 m/S 743 mmHg 84%
23:00 +11°C° 0.6 mm 6 m/S 743 mmHg 87%

Morgen, 28 September, Montag

Zeit Temperatur Niederschläge Wind Luftdruck Luftfeuchtigkeit
00:00 +13°C° 0.7 mm 6 m/S 743 mmHg 89%
01:00 +13°C° 0.7 mm 6 m/S 743 mmHg 91%
02:00 +13°C° 0.7 mm 5 m/S 743 mmHg 93%
03:00 +13°C° 0 mm 5 m/S 744 mmHg 93%
04:00 +13°C° 0 mm 5 m/S 744 mmHg 92%
05:00 +13°C° 0 mm 5 m/S 744 mmHg 92%
06:00 +12°C° 0 mm 5 m/S 745 mmHg 91%
07:00 +12°C° 0 mm 5 m/S 745 mmHg 90%
08:00 +10°C° 0 mm 5 m/S 746 mmHg 89%
09:00 +12°C° 0 mm 5 m/S 746 mmHg 84%
10:00 +13°C° 0 mm 5 m/S 747 mmHg 79%
11:00 +14°C° 0 mm 4 m/S 748 mmHg 73%
12:00 +14°C° 0 mm 4 m/S 748 mmHg 70%
13:00 +16°C° 0 mm 3 m/S 748 mmHg 66%
14:00 +17°C° 0 mm 3 m/S 748 mmHg 62%
15:00 +16°C° 0 mm 3 m/S 748 mmHg 66%
16:00 +15°C° 0 mm 2 m/S 748 mmHg 70%
17:00 +15°C° 0 mm 2 m/S 748 mmHg 74%
18:00 +14°C° 0 mm 2 m/S 748 mmHg 75%
19:00 +13°C° 0 mm 2 m/S 749 mmHg 77%
20:00 +12°C° 0 mm 2 m/S 749 mmHg 78%
21:00 +12°C° 0 mm 2 m/S 749 mmHg 78%
22:00 +12°C° 0 mm 2 m/S 749 mmHg 78%
23:00 +12°C° 0 mm 1 m/S 749 mmHg 79%

übermorgen, 29 September, Dienstag

Zeit Temperatur Niederschläge Wind Luftdruck Luftfeuchtigkeit
00:00 +12°C° 0 mm 1 m/S 749 mmHg 80%
01:00 +12°C° 0 mm 2 m/S 748 mmHg 80%
02:00 +12°C° 0 mm 2 m/S 748 mmHg 81%
03:00 +12°C° 0 mm 2 m/S 748 mmHg 82%
04:00 +12°C° 0 mm 2 m/S 748 mmHg 84%
05:00 +12°C° 0 mm 2 m/S 748 mmHg 85%
06:00 +12°C° 0 mm 2 m/S 748 mmHg 85%
07:00 +12°C° 0 mm 3 m/S 748 mmHg 86%
08:00 +12°C° 0 mm 3 m/S 747 mmHg 87%
09:00 +14°C° 0 mm 3 m/S 747 mmHg 81%
10:00 +16°C° 0 mm 3 m/S 747 mmHg 75%
11:00 +17°C° 0 mm 3 m/S 747 mmHg 69%
12:00 +18°C° 0 mm 4 m/S 747 mmHg 67%
13:00 +18°C° 0 mm 4 m/S 747 mmHg 65%
14:00 +19°C° 0 mm 5 m/S 746 mmHg 63%
15:00 +18°C° 0 mm 4 m/S 746 mmHg 67%
16:00 +17°C° 0 mm 4 m/S 746 mmHg 70%
17:00 +15°C° 0 mm 4 m/S 746 mmHg 74%
18:00 +14°C° 0 mm 4 m/S 746 mmHg 69%
19:00 +14°C° 0 mm 4 m/S 746 mmHg 64%
20:00 +14°C° 0 mm 4 m/S 746 mmHg 59%
21:00 +13°C° 0 mm 4 m/S 745 mmHg 61%
22:00 +12°C° 0 mm 4 m/S 745 mmHg 62%
23:00 +12°C° 0 mm 4 m/S 745 mmHg 63%

30 September, Mittwoch

Zeit Temperatur Niederschläge Wind Luftdruck Luftfeuchtigkeit
00:00 +11°C° 0 mm 4 m/S 745 mmHg 63%
01:00 +11°C° 0 mm 4 m/S 744 mmHg 63%
02:00 +11°C° 0 mm 4 m/S 744 mmHg 63%
03:00 +10°C° 0 mm 5 m/S 744 mmHg 62%
04:00 +9°C° 0 mm 5 m/S 744 mmHg 62%
05:00 +9°C° 0 mm 5 m/S 744 mmHg 61%
06:00 +9°C° 0 mm 5 m/S 744 mmHg 61%
07:00 +10°C° 0 mm 5 m/S 744 mmHg 61%
08:00 +10°C° 0 mm 5 m/S 744 mmHg 61%
09:00 +12°C° 0 mm 5 m/S 744 mmHg 60%
10:00 +13°C° 0 mm 6 m/S 744 mmHg 59%
11:00 +14°C° 0 mm 6 m/S 744 mmHg 58%
12:00 +15°C° 0 mm 6 m/S 744 mmHg 56%
13:00 +15°C° 0 mm 6 m/S 743 mmHg 53%
14:00 +16°C° 0 mm 6 m/S 743 mmHg 51%
15:00 +15°C° 0 mm 6 m/S 743 mmHg 53%
16:00 +15°C° 0 mm 6 m/S 743 mmHg 56%
17:00 +14°C° 0 mm 5 m/S 743 mmHg 58%
18:00 +14°C° 0 mm 5 m/S 743 mmHg 55%
19:00 +13°C° 0 mm 5 m/S 743 mmHg 51%
20:00 +13°C° 0 mm 5 m/S 743 mmHg 48%
21:00 +12°C° 0 mm 5 m/S 743 mmHg 49%
22:00 +12°C° 0 mm 5 m/S 743 mmHg 51%
23:00 +10°C° 0 mm 5 m/S 743 mmHg 53%

1 Oktober, Donnerstag

Zeit Temperatur Niederschläge Wind Luftdruck Luftfeuchtigkeit
00:00 +9°C° 0 mm 5 m/S 743 mmHg 53%
01:00 +9°C° 0 mm 5 m/S 743 mmHg 54%
02:00 +9°C° 0 mm 5 m/S 743 mmHg 54%
03:00 +9°C° 0 mm 5 m/S 743 mmHg 54%
04:00 +8°C° 0 mm 6 m/S 743 mmHg 55%
05:00 +8°C° 0 mm 6 m/S 743 mmHg 55%
06:00 +9°C° 0 mm 6 m/S 743 mmHg 57%
07:00 +9°C° 0 mm 6 m/S 743 mmHg 58%
08:00 +10°C° 0 mm 7 m/S 743 mmHg 59%
09:00 +11°C° 0 mm 7 m/S 743 mmHg 57%
10:00 +13°C° 0 mm 8 m/S 743 mmHg 55%
11:00 +15°C° 0 mm 8 m/S 743 mmHg 54%
12:00 +15°C° 0 mm 8 m/S 743 mmHg 55%
13:00 +15°C° 0 mm 8 m/S 743 mmHg 56%
14:00 +16°C° 0 mm 7 m/S 743 mmHg 57%
15:00 +15°C° 0 mm 7 m/S 743 mmHg 60%
16:00 +14°C° 0 mm 6 m/S 743 mmHg 63%
17:00 +13°C° 0 mm 5 m/S 744 mmHg 66%
18:00 +13°C° 0 mm 5 m/S 744 mmHg 64%
19:00 +13°C° 0 mm 5 m/S 744 mmHg 62%
20:00 +12°C° 0 mm 5 m/S 744 mmHg 60%
21:00 +12°C° 0 mm 5 m/S 744 mmHg 59%
22:00 +12°C° 0 mm 5 m/S 744 mmHg 57%
23:00 +12°C° 0 mm 5 m/S 744 mmHg 56%

2 Oktober, Freitag

Zeit Temperatur Niederschläge Wind Luftdruck Luftfeuchtigkeit
00:00 +12°C° 0 mm 5 m/S 744 mmHg 54%
01:00 +12°C° 0 mm 5 m/S 744 mmHg 53%
02:00 +12°C° 0 mm 5 m/S 744 mmHg 51%
03:00 +12°C° 0 mm 5 m/S 744 mmHg 52%
04:00 +12°C° 0 mm 5 m/S 744 mmHg 52%
05:00 +11°C° 0 mm 6 m/S 745 mmHg 53%
06:00 +11°C° 0 mm 6 m/S 745 mmHg 55%
07:00 +11°C° 0 mm 6 m/S 745 mmHg 57%
08:00 +11°C° 0 mm 6 m/S 745 mmHg 59%
09:00 +13°C° 0 mm 6 m/S 745 mmHg 57%
10:00 +14°C° 0 mm 7 m/S 745 mmHg 55%
11:00 +15°C° 0 mm 7 m/S 746 mmHg 53%
12:00 +15°C° 0 mm 7 m/S 746 mmHg 54%
13:00 +15°C° 0 mm 6 m/S 746 mmHg 55%
14:00 +15°C° 0 mm 6 m/S 746 mmHg 57%
15:00 +14°C° 0 mm 6 m/S 746 mmHg 63%
16:00 +12°C° 0 mm 7 m/S 746 mmHg 69%
17:00 +10°C° 0 mm 7 m/S 746 mmHg 75%
18:00 +10°C° 0 mm 6 m/S 746 mmHg 75%
19:00 +10°C° 0 mm 5 m/S 746 mmHg 75%
20:00 +11°C° 0 mm 4 m/S 747 mmHg 75%
21:00 +11°C° 0 mm 4 m/S 747 mmHg 76%
22:00 +10°C° 0 mm 4 m/S 747 mmHg 77%
23:00 +10°C° 0 mm 4 m/S 747 mmHg 78%
Mehr zeigen